#timestamp,LO_Frequency,Hit,StdDev 
1607484935.6,286047018.6,P
1607484955.4,286047018.4,P
1607484975.2,286047015.8,P
1607484995.1,286047017.6,Y
1607484996.0,286047017.6,P
1607485015.8,286047000.8,P
1607485035.6,286047000.7,N
1607485055.5,286046999.9,N
1607485075.3,286047001.6,N
1607485095.2,286047002.3,N
1607485115.9,286047002.6,N
1607485135.7,286047004.6,N
1607485155.6,286047004.6,N
1607485175.4,286047006.4,N
1607485195.2,286047004.6,N
1607485215.1,286047003.0,N
1607485216.0,286047003.0,N
1607485235.8,286047005.7,N
1607485255.7,286047004.2,N
1607485275.5,286047003.6,N
1607485295.3,286047003.0,N
1607485315.2,286047002.9,N
1607485335.0,286047004.9,N
1607485335.9,286047004.9,N
1607485355.7,286047004.9,N
1607485375.6,286047008.0,N
1607485395.4,286047011.1,N
1607485415.3,286047011.3,N
1607485435.1,286047011.7,N
1607485455.8,286047013.9,Y
1607485475.7,286047007.1,P
1607485495.5,286047005.4,P
1607485515.4,286047005.7,P
1607485535.2,286047007.1,Y
1607485555.0,286047000.6,P
1607485555.9,286047000.6,N
1607485575.8,286047000.2,N
1607485595.6,286047000.7,N
1607485615.4,286046998.4,N
1607485635.3,286046998.2,N
1607485655.1,286047000.6,N
1607485675.9,286047000.0,N
1607485695.7,286047000.2,N
1607485715.5,286047001.7,N
1607485735.4,286047000.2,N
1607485755.2,286046998.8,N
1607485775.0,286046998.0,N
1607485775.9,286046998.0,N
1607485795.8,286046994.9,N
1607485815.6,286046995.4,N
1607485835.5,286046997.8,N
1607485855.3,286046997.2,N
1607485875.1,286046998.9,N
1607485895.9,286046996.5,N
1607485915.7,286046997.1,N
1607485935.5,286046997.5,N
1607485955.4,286046996.1,N
1607485975.2,286046995.2,N
1607485995.0,286046997.5,N
1607485996.0,286046997.5,N
1607486015.8,286046998.0,N
1607486035.6,286046995.9,N
1607486055.5,286046998.0,N
1607486075.3,286046998.5,N
1607486095.1,286046999.6,N
1607486115.9,286046997.7,N
1607486135.7,286046997.0,N
1607486155.6,286046997.8,N
1607486175.4,286046996.0,N
1607486195.2,286046997.9,N
1607486215.1,286046999.2,N
1607486216.0,286046999.2,N
1607486235.8,286046999.6,N
1607486255.6,286046999.6,N
1607486275.5,286046997.9,N
1607486295.3,286046995.0,Y
1607486315.2,286047001.8,P
1607486335.9,286047001.3,N
1607486355.7,286047004.9,N
1607486375.6,286047005.7,N
1607486395.4,286047003.8,N
